This is the latest recevied weather packets stored in our database for station/object OE-11204. If no packets are shown the sender has not sent any weather packets the latest 10 day(s).
| Time | Temp. | Humidity | Pressure | Rain* | Wind** | Luminosity | Snow |
|---|---|---|---|---|---|---|---|
| 1787894715 | 18.33° C | 83% | 1016.8 hPa | 0 mm | - | 50 W/m² | - |
| 1787893888 | 18.33° C | 83% | 1016.9 hPa | 0 mm | - | 56 W/m² | - |
| 1787893515 | 17.78° C | 86% | 1016.8 hPa | 0 mm | - | 37 W/m² | - |
| 1787892915 | 17.22° C | 88% | 1017 hPa | 0 mm | - | 12 W/m² | - |
| 1787892087 | 16.67° C | 90% | 1017.1 hPa | 0 mm | - | 0 W/m² | - |
| 1787891714 | 16.67° C | 90% | 1017.2 hPa | 0 mm | - | 0 W/m² | - |
| 1787891115 | 17.22° C | 88% | 1017 hPa | 0 mm | - | 0 W/m² | - |
| 1787890287 | 17.22° C | 90% | 1017.1 hPa | 0 mm | - | 0 W/m² | - |
| 1787889915 | 16.67° C | 90% | 1017.3 hPa | 0 mm | - | 0 W/m² | - |
| 1787889315 | 17.22° C | 89% | 1017.1 hPa | 0 mm | - | 0 W/m² | - |
| 1787888714 | 17.22° C | 88% | 1017.1 hPa | 0 mm | - | 0 W/m² | - |
| 1787888114 | 17.78° C | 89% | 1017.1 hPa | 0 mm | - | 0 W/m² | - |
| 1787887514 | 17.22° C | 90% | 1017.2 hPa | 0 mm | - | 0 W/m² | - |
| 1787886686 | 17.22° C | 90% | 1017.2 hPa | 0 mm | - | 0 W/m² | - |
| 1787886313 | 17.22° C | 90% | 1017.1 hPa | 0 mm | - | 0 W/m² | - |
| 1787885715 | 17.22° C | 90% | 1017.1 hPa | 0 mm | - | 0 W/m² | - |
| 1787884888 | 17.78° C | 89% | 1017.2 hPa | 0 mm | - | 0 W/m² | - |
| 1787884515 | 17.78° C | 88% | 1017.2 hPa | 0 mm | - | 0 W/m² | - |
| 1787883915 | 17.78° C | 89% | 1017.2 hPa | 0 mm | - | 0 W/m² | - |
| 1787883088 | 17.78° C | 88% | 1017.1 hPa | 0 mm | - | 0 W/m² | - |
| 1787882715 | 17.78° C | 88% | 1017.1 hPa | 0 mm | - | 0 W/m² | - |
| 1787882112 | 17.78° C | 89% | 1017.2 hPa | 0 mm | - | 0 W/m² | - |
| 1787881287 | 17.78° C | 88% | 1017 hPa | 0 mm | - | 0 W/m² | - |
| 1787880915 | 17.78° C | 88% | 1017.1 hPa | 0 mm | - | 0 W/m² | - |
| 1787880315 | 18.33° C | 87% | 1017 hPa | 0 mm | - | 0 W/m² | - |
* Rain latest hour (hover to see other rain measurements)
** Current wind speed in m/s (hover to see current wind gust speed)